Location: ??
(34.7707°N, 135.6540°E)
Time: 05:05:32
(UTC+00:00)

ADEOS - Pass Details

Date: 09 April 2020
Orbit: 792 x 795 km, 98.9° (Epoch: 27 May)

Event Time Altitude Azimuth Distance (km) Brightness Sun altitude
Rises 19:39:39 0° 3° (N) 3,300 7.1 -11.3°
Reaches altitude 10° 19:42:08 10° 355° (N) 2,366 6.2 -10.8°
Maximum altitude 19:46:53 37° 290° (WNW) 1,217 4.2 -9.9°
Drops below altitude 10° 19:51:37 10° 224° (SW) 2,352 5.5 -9.0°
Enters shadow 19:52:51 - 219° (SW) 2,805 5.9 -8.7°
